EW7906 Weather Reports


time (UTC)temp
F
wind
direction
speed
knots
gust
knots
rain 1hr
in
rain 24hr
in
rain mn
in
humidity
%
barometer
mb
20260906032435 146 150 1.7 8.7 0.00 0.00 0.00 100 1012.8
20260906031936 146 115 1.7 7.0 0.00 0.00 0.00 100 1012.8
20260906031427 146 161 2.6 7.0 0.00 0.00 0.00 100 1012.5
20260906030927 146 163 1.7 6.1 0.00 0.00 0.00 100 1012.4
20260906030427 146 92 1.7 6.1 0.00 0.00 0.00 100 1012.3
20260906030151 146 143 2.6 8.7 0.00 0.00 0.00 100 1012.3
20260906025412 146 57 4.3 10.4 0.00 0.00 0.00 100 1012.3
20260906024910 146 163 4.3 10.4 0.00 0.00 0.00 100 1012.2
20260906024410 146 156 2.6 8.7 0.00 0.00 0.00 100 1012.0
20260906023909 146 170 2.6 7.0 0.00 0.00 0.00 100 1011.8
20260906023408 146 92 3.5 7.0 0.00 0.00 0.00 100 1011.7
20260906022909 146 136 0.9 7.8 0.00 0.00 0.00 100 1011.5
20260906022404 146 140 0.9 7.8 0.00 0.00 0.00 100 1011.4
20260906021905 146 142 4.3 8.7 0.00 0.00 0.00 100 1011.2
20260906021405 146 147 1.7 8.7 0.00 0.00 0.00 100 1011.1
20260906020900 146 123 3.5 7.8 0.00 0.00 0.00 100 1011.1
20260906020401 146 108 0.0 7.8 0.00 0.00 0.00 100 1011.0
20260906015857 146 151 0.0 7.8 0.00 0.00 0.00 100 1010.9
20260906015624 147 119 2.6 7.0 0.00 0.00 0.00 100 1010.9
20260906014848 146 132 3.5 7.0 0.00 0.00 0.00 100 1010.9
20260906014616 147 146 2.6 7.0 0.00 0.00 0.00 100 1010.9
20260906013846 147 163 1.7 7.0 0.00 0.00 0.00 100 1010.9
20260906013345 147 140 0.0 8.7 0.00 0.00 0.00 100 1010.9
20260906012844 147 127 4.3 9.6 0.00 0.00 0.00 100 1010.7
20260906012341 147 174 4.3 11.3 0.00 0.00 0.00 100 1010.8
20260906011842 147 144 1.7 11.3 0.00 0.00 0.00 100 1010.7
20260906011342 147 129 4.3 10.4 0.00 0.00 0.00 100 1010.7
20260906010841 147 146 4.3 11.3 0.00 0.00 0.00 100 1010.6
20260906010341 147 129 3.5 11.3 0.00 0.00 0.00 100 1010.6
20260906005841 147 106 2.6 9.6 0.00 0.00 0.00 100 1010.6
20260906005606 148 68 2.6 9.6 0.00 0.00 0.00 100 1010.5
20260906004835 147 150 1.7 7.0 0.00 0.00 0.00 100 1010.5
20260906004333 148 144 0.0 7.8 0.00 0.00 0.00 100 1010.5
20260906004055 148 157 3.5 7.8 0.00 0.00 0.00 100 1010.5
20260906003324 148 137 0.0 4.3 0.00 0.00 0.00 100 1010.5
20260906002821 148 113 0.0 3.5 0.00 0.00 0.00 100 1010.4
20260906002306 148 149 0.0 3.5 0.00 0.00 0.00 100 1010.3
20260906001800 148 154 0.0 0.0 0.00 0.00 0.00 100 1010.3
20260906001241 148 154 0.0 0.0 0.00 0.00 0.00 100 1010.3
20260906000735 148 154 0.0 1.7 0.00 0.00 0.00 100 1010.3
20260906000226 148 154 0.0 4.3 0.00 0.00 0.00 100 1010.3
20260905235723 148 154 1.7 4.3 0.00 0.00 0.00 100 1010.2
20260905235220 148 147 0.0 3.5 0.00 0.00 0.00 100 1010.2
20260905234704 148 147 0.0 3.5 0.00 0.00 0.00 100 1010.2
20260905234158 148 74 0.0 2.6 0.00 0.00 0.00 100 1010.2
20260905233648 148 40 0.0 1.7 0.00 0.00 0.00 100 1010.0
20260905233147 148 36 0.0 5.2 0.00 0.00 0.00 100 1010.0
20260905232637 148 36 1.7 5.2 0.00 0.00 0.00 100 1010.0
20260905232113 148 164 0.9 7.0 0.00 0.00 0.00 100 1010.0
20260905231613 149 140 0.9 7.0 0.00 0.00 0.00 100 1010.0
20260905231117 149 108 0.0 4.3 0.00 0.00 0.00 100 1010.0
20260905231113 149 115 1.7 6.1 0.00 0.00 0.00 100 1010.0
20260905230607 149 123 2.6 4.3 0.00 0.00 0.00 100 1010.0
20260905225604 149 143 0.0 5.2 0.00 0.00 0.00 100 1009.9
20260905225056 149 143 0.9 5.2 0.00 0.00 0.00 100 1010.0
20260905224557 149 77 0.9 4.3 0.00 0.00 0.00 100 1010.2
20260905224059 149 15 0.0 3.5 0.00 0.00 0.00 100 1010.0
20260905223555 149 136 0.0 3.5 0.00 0.00 0.00 100 1010.0
20260905223315 149 136 0.0 5.2 0.00 0.00 0.00 100 1010.0
20260905222522 148 146 1.7 5.2 0.00 0.00 0.00 100 1010.2
20260905222007 149 144 0.0 5.2 0.00 0.00 0.00 100 1010.2
20260905221506 149 227 0.0 5.2 0.00 0.00 0.00 100 1010.2
20260905221233 149 247 0.0 4.3 0.00 0.00 0.00 100 1010.3
20260905220444 149 239 2.6 4.3 0.00 0.00 0.00 100 1010.4
20260905220214 149 136 0.0 5.2 0.00 0.00 0.00 100 1010.4
20260905215433 149 137 1.7 5.2 0.00 0.00 0.00 100 1010.4
20260905214911 149 123 0.0 4.3 0.00 0.00 0.00 100 1010.4
20260905214406 149 146 0.0 6.1 0.00 0.00 0.00 100 1010.4
20260905213903 149 153 0.0 6.1 0.00 0.00 0.00 100 1010.4
20260905213401 149 116 0.0 1.7 0.00 0.00 0.00 100 1010.4
20260905212858 148 116 0.0 4.3 0.00 0.00 0.00 100 1010.4
20260905212357 148 116 1.7 4.3 0.00 0.00 0.00 100 1010.5
20260905211841 148 102 0.0 2.6 0.00 0.00 0.00 100 1010.5
20260905211319 149 102 0.0 3.5 0.00 0.00 0.00 100 1010.6
20260905210757 149 102 0.0 6.1 0.00 0.00 0.00 100 1010.6
20260905210528 149 136 3.5 6.1 0.00 0.00 0.00 100 1010.7
20260905205759 150 125 1.7 5.2 0.00 0.00 0.00 100 1010.7
20260905205258 150 237 0.9 7.8 0.00 0.00 0.00 100 1010.8
20260905204744 150 139 0.9 7.8 0.00 0.00 0.00 100 1010.9
20260905204242 150 82 0.0 7.0 0.00 0.00 0.00 100 1010.9
20260905203741 149 161 3.5 7.0 0.00 0.00 0.00 100 1011.1
20260905203241 150 180 0.0 6.1 0.00 0.00 0.00 100 1011.2
20260905202732 150 232 0.0 5.2 0.00 0.00 0.00 100 1011.1
20260905202232 150 213 0.0 6.1 0.00 0.00 0.00 100 1011.3
20260905201715 149 153 1.7 6.1 0.00 0.00 0.00 100 1011.4
20260905201215 150 180 2.6 3.5 0.00 0.00 0.00 100 1011.5
20260905200703 150 9 0.0 1.7 0.00 0.00 0.00 100 1011.6
20260905200431 149 9 0.0 2.6 0.00 0.00 0.00 100 1011.7
20260905195657 149 11 1.7 5.2 0.00 0.00 0.00 100 1011.7
20260905195157 150 125 0.9 7.0 0.00 0.00 0.00 100 1011.9
20260905194656 150 201 1.7 7.0 0.00 0.00 0.00 100 1011.9
20260905194143 150 296 0.0 7.0 0.00 0.00 0.00 100 1012.0
20260905193641 149 22 0.0 7.8 0.00 0.00 0.00 100 1012.1
20260905193139 149 133 3.5 7.8 0.00 0.00 0.00 100 1012.2
20260905192635 149 153 3.5 7.8 0.00 0.00 0.00 100 1012.3
20260905192135 149 191 3.5 7.0 0.00 0.00 0.00 100 1012.4
20260905191630 150 116 3.5 4.3 0.00 0.00 0.00 100 1012.5
20260905191358 150 185 0.0 3.5 0.00 0.00 0.00 100 1012.5
20260905190614 149 168 1.7 6.1 0.00 0.00 0.00 100 1012.8
20260905190113 149 175 2.6 8.7 0.00 0.00 0.00 100 1012.9
20260905185611 149 18 4.3 8.7 0.00 0.00 0.00 100 1012.9
20260905185112 149 1 0.9 8.7 0.00 0.00 0.00 100 1013.0
20260905184606 148 223 0.0 8.7 0.00 0.00 0.00 100 1013.0
20260905184333 149 45 0.9 9.6 0.00 0.00 0.00 100 1013.2
20260905183602 148 177 3.5 9.6 0.00 0.00 0.00 100 1013.3
20260905183102 149 156 2.6 5.2 0.00 0.00 0.00 100 1013.4
20260905182603 149 115 0.0 7.8 0.00 0.00 0.00 100 1013.5
20260905182101 148 157 1.7 7.8 0.00 0.00 0.00 100 1013.6
20260905181601 149 139 0.0 6.1 0.00 0.00 0.00 100 1013.6
20260905181059 149 151 0.0 9.6 0.00 0.00 0.00 100 1013.8
20260905180556 148 108 2.6 9.6 0.00 0.00 0.00 100 1014.0
20260905180328 148 156 5.2 7.8 0.00 0.00 0.00 100 1014.0
20260905175557 148 174 5.2 10.4 0.00 0.00 0.00 100 1014.1
20260905175057 148 130 3.5 10.4 0.00 0.00 0.00 100 1014.3
20260905174557 148 26 0.9 7.0 0.00 0.00 0.00 100 1014.3
20260905174057 147 142 1.7 6.1 0.00 0.00 0.00 100 1014.5
20260905173556 148 146 2.6 6.1 0.00 0.00 0.00 100 1014.4
20260905173057 148 14 0.0 6.1 0.00 0.00 0.00 100 1014.5
20260905172557 148 157 0.9 4.3 0.00 0.00 0.00 100 1014.5
20260905172053 148 167 2.6 4.3 0.00 0.00 0.00 100 1014.7
20260905171539 148 147 0.9 5.2 0.00 0.00 0.00 100 1014.6
20260905171039 147 135 3.5 8.7 0.00 0.00 0.00 100 1014.7
20260905170808 147 91 5.2 8.7 0.00 0.00 0.00 100 1014.7
20260905170029 147 115 0.0 7.8 0.00 0.00 0.00 100 1014.7
20260905165801 148 149 0.9 7.8 0.00 0.00 0.00 100 1014.7
20260905165021 148 133 3.5 5.2 0.00 0.00 0.00 100 1014.8
20260905164516 147 109 0.0 7.8 0.00 0.00 0.00 100 1014.9
20260905164006 147 149 0.0 7.8 0.00 0.00 0.00 100 1014.9
20260905163734 147 161 2.6 7.8 0.00 0.00 0.00 100 1014.9
20260905163003 147 150 4.3 7.8 0.00 0.00 0.00 100 1014.8
20260905162502 147 143 1.7 7.0 0.00 0.00 0.00 100 1014.8
20260905162232 147 180 4.3 7.0 0.00 0.00 0.00 100 1014.8
20260905161732 147 125 0.0 7.0 0.00 0.00 0.00 100 1014.9
20260905160959 146 182 4.3 7.0 0.00 0.00 0.00 100 1015.0
20260905160729 147 140 3.5 7.0 0.00 0.00 0.00 100 1014.9
20260905155959 146 146 0.0 9.6 0.00 0.00 0.00 100 1014.9
20260905155456 147 170 0.0 9.6 0.00 0.00 0.00 100 1014.9
20260905154957 147 188 4.3 7.8 0.00 0.00 0.00 100 1014.8
20260905154458 146 217 2.6 7.8 0.00 0.00 0.00 100 1014.8
20260905153958 146 151 2.6 7.8 0.00 0.00 0.00 100 1014.8
20260905153457 146 244 4.3 7.8 0.00 0.00 0.00 100 1014.8
20260905152956 146 151 1.7 7.8 0.00 0.00 0.00 100 1014.9
20260905152727 146 239 5.2 7.8 0.00 0.00 0.00 100 1014.9
20260905151957 147 229 1.7 7.0 0.00 0.00 0.00 100 1014.9
20260905151458 146 246 0.0 6.1 0.00 0.00 0.00 100 1014.8
20260905150957 146 236 0.9 6.1 0.00 0.00 0.00 100 1014.9
20260905150457 145 222 0.0 7.0 0.00 0.00 0.00 100 1014.9
20260905145956 145 164 3.5 7.0 0.00 0.00 0.00 100 1014.9
20260905145456 145 187 0.0 6.1 0.00 0.00 0.00 100 1014.9
20260905144951 145 123 3.5 6.1 0.00 0.00 0.00 100 1014.8
20260905144451 145 137 0.0 5.2 0.00 0.00 0.00 100 1014.7
20260905143942 145 170 0.0 5.2 0.00 0.00 0.00 100 1014.7
20260905143439 145 136 0.0 5.2 0.00 0.00 0.00 100 1014.8
20260905143210 145 220 0.9 5.2 0.00 0.00 0.00 100 1014.7
20260905142712 145 113 0.0 2.6 0.00 0.00 0.00 100 1014.7
20260905141919 145 113 0.0 2.6 0.00 0.00 0.00 100 1014.7
20260905141344 144 113 0.0 5.2 0.00 0.00 0.00 100 1014.7
20260905140833 144 125 0.9 5.2 0.00 0.00 0.00 100 1014.6
20260905140331 144 154 3.5 4.3 0.00 0.00 0.00 100 1014.6
20260905135830 144 154 0.0 4.3 0.00 0.00 0.00 100 1014.6
20260905135330 144 181 0.0 0.0 0.00 0.00 0.00 100 1014.5
20260905134830 144 181 0.0 0.0 0.00 0.00 0.00 2 1014.4
20260905134311 144 181 0.0 0.0 0.00 0.00 0.00 4 1014.4
20260905133808 144 181 0.0 0.0 0.00 0.00 0.00 14 1014.4
20260905133300 143 181 0.0 0.0 0.00 0.00 0.00 29 1014.5
20260905132754 143 181 0.0 0.0 0.00 0.00 0.00 47 1014.5
20260905132242 143 181 0.0 0.0 0.00 0.00 0.00 65 1014.4
20260905131741 143 181 0.0 0.0 0.00 0.00 0.00 96 1014.3
20260905131509 143 181 0.0 0.0 0.00 0.00 0.00 100 1014.3
20260905130714 143 181 0.0 0.0 0.00 0.00 0.00 100 1014.3
20260905130215 143 181 0.0 0.0 0.00 0.00 0.00 100 1014.2
20260905125714 143 181 0.0 0.0 0.00 0.00 0.00 100 1014.2
20260905125212 143 181 0.0 0.0 0.00 0.00 0.00 100 1014.2
20260905124658 143 181 0.0 0.0 0.00 0.00 0.00 100 1014.0
20260905124157 143 181 0.0 0.0 0.00 0.00 0.00 100 1013.9
20260905123635 143 181 0.0 0.0 0.00 0.00 0.00 100 1013.9
20260905123127 142 181 0.0 0.0 0.00 0.00 0.00 100 1013.9
20260905122617 143 181 0.0 0.0 0.00 0.00 0.00 100 1013.9
20260905122117 142 181 0.0 0.0 0.00 0.00 0.00 100 1013.9
20260905121554 142 181 0.0 0.0 0.00 0.00 0.00 100 1013.9
20260905121041 143 181 0.0 0.0 0.00 0.00 0.00 100 1013.8
20260905120539 142 181 0.0 0.0 0.00 0.00 0.00 100 1013.8
20260905120248 142 181 0.0 0.0 0.00 0.00 0.00 100 1013.8
20260905115512 142 181 0.0 0.0 0.00 0.00 0.00 100 1013.6
20260905115002 142 181 0.0 0.0 0.00 0.00 0.00 100 1013.5
20260905114457 143 181 0.0 0.0 0.00 0.00 0.00 100 1013.5
20260905113935 143 181 0.0 0.0 0.00 0.00 0.00 100 1013.5
20260905113407 143 181 0.0 0.0 0.00 0.00 0.00 100 1013.5
20260905113138 143 181 0.0 0.0 0.00 0.00 0.00 95 1013.3
20260905112629 143 181 0.0 0.0 0.00 0.00 0.00 92 1013.3
20260905111856 143 181 0.0 0.0 0.00 0.00 0.00 92 1013.4
20260905111604 143 181 0.0 0.0 0.00 0.00 0.00 92 1013.4
20260905110829 143 181 0.0 0.0 0.00 0.00 0.00 91 1013.3
20260905110326 143 181 0.0 0.0 0.00 0.00 0.00 45 1013.3
20260905105828 143 181 0.0 0.0 0.00 0.00 0.00 41 1013.2
20260905105324 143 181 0.0 0.0 0.00 0.00 0.00 41 1013.2
20260905104817 143 181 0.0 0.0 0.00 0.00 0.00 33 1013.2
20260905104254 143 181 0.0 0.0 0.00 0.00 0.00 30 1013.2
20260905103731 143 181 0.0 0.0 0.00 0.00 0.00 26 1013.2
20260905103223 143 181 0.0 0.0 0.00 0.00 0.00 23 1013.2
20260905102713 143 181 0.0 0.0 0.00 0.00 0.00 19 1013.2
20260905102212 143 181 0.0 0.0 0.00 0.00 0.00 17 1013.2
20260905101712 143 181 0.0 0.0 0.00 0.00 0.00 15 1013.3
20260905101212 143 181 0.0 0.0 0.00 0.00 0.00 15 1013.2
20260905100706 143 181 0.0 0.0 0.00 0.00 0.00 13 1013.2
20260905100204 143 181 0.0 0.0 0.00 0.00 0.00 10 1013.1
20260905095658 143 181 0.0 0.0 0.00 0.00 0.00 8 1013.1
20260905095158 143 181 0.0 0.0 0.00 0.00 0.00 7 1013.0
20260905094658 143 181 0.0 0.0 0.00 0.00 0.00 7 1013.0
20260905094145 143 181 0.0 0.0 0.00 0.00 0.00 6 1013.0
20260905093629 143 181 0.0 0.0 0.00 0.00 0.00 5 1013.0
20260905093356 143 181 0.0 0.0 0.00 0.00 0.00 5 1013.0
20260905092857 143 181 0.0 0.0 0.00 0.00 0.00 4 1013.0
20260905092106 143 181 0.0 0.0 0.00 0.00 0.00 4 1013.0
20260905091545 143 181 0.0 0.0 0.00 0.00 0.00 3 1013.0
20260905091044 143 181 0.0 0.0 0.00 0.00 0.00 2 1013.0
20260905090809 143 181 0.0 0.0 0.00 0.00 0.00 2 1013.1
20260905090530 143 181 0.0 0.0 0.00 0.00 0.00 1 1013.0
20260905085525 143 181 0.0 0.0 0.00 0.00 0.00 1 1013.1
20260905085025 143 181 0.0 0.0 0.00 0.00 0.00 100 1013.1
20260905084502 143 181 0.0 0.0 0.00 0.00 0.00 100 1013.2
20260905084214 143 181 0.0 0.0 0.00 0.00 0.00 100 1013.2
20260905083428 143 181 0.0 2.6 0.00 0.00 0.00 100 1013.2
20260905082927 144 181 0.0 2.6 0.00 0.00 0.00 100 1013.2
20260905082417 144 125 0.0 0.9 0.00 0.00 0.00 100 1013.2
20260905082148 144 125 0.0 5.2 0.00 0.00 0.00 100 1013.3
20260905081647 144 125 0.9 5.2 0.00 0.00 0.00 100 1013.3
20260905080913 144 174 0.0 0.0 0.00 0.00 0.00 100 1013.3
20260905080403 144 174 0.0 0.0 0.00 0.00 0.00 100 1013.5
20260905075848 143 174 0.0 0.0 0.00 0.00 0.00 100 1013.4
20260905075838 144 174 0.0 0.0 0.00 0.00 0.00 100 1013.4
20260905074829 144 174 0.0 0.0 0.00 0.00 0.00 100 1013.5
20260905074326 144 174 0.0 0.0 0.00 0.00 0.00 100 1013.5
20260905073821 144 174 0.0 0.0 0.00 0.00 0.00 100 1013.6
20260905073312 144 174 0.0 0.0 0.00 0.00 0.00 100 1013.6
20260905072813 144 174 0.0 0.0 0.00 0.00 0.00 100 1013.8
20260905072258 144 174 0.0 0.0 0.00 0.00 0.00 100 1013.8
20260905071739 144 174 0.0 0.9 0.00 0.00 0.00 100 1013.9
20260905071218 144 174 0.0 7.0 0.00 0.00 0.00 100 1013.9
20260905070654 144 174 0.0 7.0 0.00 0.00 0.00 100 1014.0
20260905070147 144 201 0.0 3.5 0.00 0.00 0.00 100 1014.0
20260905065648 144 201 0.0 6.1 0.00 0.00 0.00 100 1014.0
20260905065144 144 201 3.5 6.1 0.00 0.00 0.00 100 1014.1
20260905064642 144 158 0.0 3.5 0.00 0.00 0.00 100 1014.0
20260905064136 144 158 0.0 7.0 0.00 0.00 0.00 100 1014.0
20260905063630 144 136 0.0 7.0 0.00 0.00 0.00 100 1014.0
20260905063125 144 168 0.0 7.0 0.00 0.00 0.00 100 1014.0
20260905062625 144 150 0.9 7.0 0.00 0.00 0.00 100 1014.0
20260905062124 144 150 0.0 5.2 0.00 0.00 0.00 100 1014.0
20260905061612 144 157 1.7 5.2 0.00 0.00 0.00 100 1014.1
20260905061344 144 139 0.0 6.1 0.00 0.00 0.00 100 1014.1
20260905060611 144 153 0.0 6.1 0.00 0.00 0.00 100 1014.1
20260905060049 144 139 0.0 4.3 0.00 0.00 0.00 100 1014.1
20260905060030 144 81 0.0 4.3 0.00 0.00 0.00 100 1014.1
20260905055257 144 210 0.0 3.5 0.00 0.00 0.00 100 1014.1
20260905054520 144 210 0.9 4.3 0.00 0.00 0.00 100 1014.0
20260905054012 144 140 0.0 4.3 0.00 0.00 0.00 100 1014.0
20260905053501 144 125 0.0 3.5 0.00 0.00 0.00 100 1014.0
20260905053230 144 161 0.0 1.7 0.00 0.00 0.00 100 1014.0
20260905052436 144 167 0.0 0.0 0.00 0.00 0.00 100 1014.1
20260905052144 144 167 0.0 0.0 0.00 0.00 0.00 100 1014.1
20260905051353 144 167 0.0 3.5 0.00 0.00 0.00 100 1014.1
20260905050832 144 167 2.6 3.5 0.00 0.00 0.00 100 1014.1
20260905050811 144 156 0.0 2.6 0.00 0.00 0.00 100 1014.1
20260905045808 144 132 0.0 4.3 0.00 0.00 0.00 100 1014.1
20260905045257 144 191 0.0 4.3 0.00 0.00 0.00 100 1014.0
20260905044746 144 146 0.0 5.2 0.00 0.00 0.00 100 1014.1
20260905044517 144 158 0.0 6.1 0.00 0.00 0.00 100 1014.1
20260905044351 144 181 3.5 6.1 0.00 0.00 0.00 100 1013.9
20260905043237 145 177 0.0 4.3 0.00 0.00 0.00 100 1014.0
20260905043009 144 139 0.0 7.8 0.00 0.00 0.00 100 1013.9
20260905042237 145 144 0.0 7.8 0.00 0.00 0.00 100 1014.0
20260905041730 145 144 1.7 5.2 0.00 0.00 0.00 100 1014.0
20260905041659 145 101 0.0 6.1 0.00 0.00 0.00 100 1013.9
20260905040657 145 136 2.6 6.1 0.00 0.00 0.00 100 1014.0
20260905040150 145 151 0.0 5.2 0.00 0.00 0.00 100 1013.9
20260905035647 145 129 0.0 2.6 0.00 0.00 0.00 100 1013.8
20260905035143 145 129 0.0 2.6 0.00 0.00 0.00 100 1013.9
20260905034641 145 129 0.0 2.6 0.00 0.00 0.00 100 1013.8
20260905034407 145 104 0.9 5.2 0.00 0.00 0.00 100 1013.9
20260905033630 145 123 0.0 5.2 0.00 0.00 0.00 100 1013.8
20260905033130 145 118 0.0 0.9 0.00 0.00 0.00 100 1013.8